Meteo Giornale » Osservazioni meteo Gran Bretagna » Tees-Side

ore: 06:50 - Osservazioni Meteo Tees-Side
Lat. 54° 31' N Lon. 1° 25' W Alt. 37 metri s.l.m.

coperto_pioggia Europe/London

12 °C

Pioggia

Temp. 24 Ore

6 °C

12 °C

Sud/Sud-Ovest

50 Km/h

Dew point 9 °C

Umidità 81 %

Visibilità  5 Km

Il sole sorge alle ore 08:04

Il sole tramonta alle ore 16:31

Data e Ora Cielo e Fenomeni T °C DP °C Um. % Pres. hPa Vis. km Vento km/h
Oggi h: 06:50 coperto_pioggia Pioggia 12 9 81 989 5 S/SO 50
Oggi h: 06:20 coperto_pioggia Pioggia Debole 12 8 76 989 10 S 53.7
Oggi h: 05:50 molto_nuvoloso Molto Nuvoloso 11 8 81 989 10 S 51.8
Ieri h: 21:50 sereno Sereno 9 5 75 1004 10 S/SO 25.9
Ieri h: 21:20 sereno Sereno 9 5 75 1004 10 SO 25.9
Ieri h: 20:50 sereno Sereno 9 5 75 1004 10 SO 35.2
Ieri h: 20:20 poco_nuvoloso Poco Nuvoloso 10 5 71 1004 10 SO 37
Ieri h: 19:50 poco_nuvoloso Poco Nuvoloso 10 6 76 1004 10 O/SO 40.7
Ieri h: 19:20 poco_nuvoloso Poco Nuvoloso 10 6 76 1003 10 O/SO 46.3
Ieri h: 18:50 poco_nuvoloso Poco Nuvoloso 10 6 76 1003 10 O/SO 37
Ieri h: 18:20 nuvoloso Nuvoloso 10 7 81 1003 10 SO 35.2
Ieri h: 17:50 molto_nuvoloso Molto Nuvoloso 11 7 76 1003 10 S/SO 31.5
Ieri h: 17:20 molto_nuvoloso Molto Nuvoloso 11 8 81 1003 10 S/SO 29.6
Ieri h: 16:50 molto_nuvoloso Molto Nuvoloso 11 8 81 1003 10 S/SO 27.8
Ieri h: 16:20 molto_nuvoloso Molto Nuvoloso 11 8 81 1003 10 SO 33.3
Ieri h: 15:50 molto_nuvoloso Molto Nuvoloso 12 8 76 1002 10 SO 42.6
Ieri h: 15:20 molto_nuvoloso Molto Nuvoloso 12 9 81 1002 10 S/SO 24
Ieri h: 14:50 coperto_pioggia Pioggia Debole 12 9 81 1002 10 S/SO 29.6
Ieri h: 14:20 molto_nuvoloso Molto Nuvoloso 12 9 81 1002 10 S/SO 25.9
Ieri h: 13:50 nuvoloso Nuvoloso 12 9 81 1002 10 SO 35.2
Ieri h: 13:20 molto_nuvoloso Molto Nuvoloso 12 9 81 1002 10 S/SO 33.3
Ieri h: 12:50 molto_nuvoloso Molto Nuvoloso 12 9 81 1002 10 S/SO 38.8
Ieri h: 12:20 molto_nuvoloso Molto Nuvoloso 12 9 81 1002 10 S/SO 35.2
Ieri h: 11:50 molto_nuvoloso Molto Nuvoloso 10 8 87 1003 10 S 31.5
Ieri h: 11:20 molto_nuvoloso Molto Nuvoloso 10 8 87 1003 10 S 31.5
Ieri h: 10:50 molto_nuvoloso Molto Nuvoloso 9 7 87 1003 10 S 33.3
Ieri h: 10:20 molto_nuvoloso Molto Nuvoloso 9 7 87 1004 10 S 29.6
Ieri h: 09:50 molto_nuvoloso Molto Nuvoloso 8 6 87 1004 10 S 37
Ieri h: 09:20 nuvoloso Rovescio nelle Vicinanze 7 5 87 1004 8 S 38.8
Ieri h: 08:50 nuvoloso Rovescio nelle Vicinanze 7 5 87 1004 8 S 38.8
Ieri h: 08:20 nuvoloso Nuvoloso 6 4 86 1005 10 S 37
Ieri h: 07:50 nuvoloso Nuvoloso 6 4 86 1006 10 S 25.9
Ieri h: 07:20 nuvoloso Nuvoloso 6 4 86 1006 10 S 24
Ieri h: 06:50 nuvoloso Nuvoloso 6 4 86 1007 10 S 27.8